Groton, CT

5:40 PM EDT on June 22, 2017 (GMT -0400)
Groton-New London

Weather History for KGON - January, 2014

Change the Weather History Date:

Saturday, January 18, 2014

  Actual Average Record
Temperature  
Mean Temperature 38 °F -  
Max Temperature 43 °F 35 °F 58 °F (1990)
Min Temperature 33 °F 15 °F -13 °F (1982)
Degree Days  
Heating Degree Days 27    
Moisture  
Dew Point 34 °F    
Average Humidity 86    
Maximum Humidity 93    
Minimum Humidity 70    
Precipitation  
Precipitation 0.06 in - - ()
Sea Level Pressure  
Sea Level Pressure 29.71 in    
Wind  
Wind Speed 6 mph (NNW)    
Max Wind Speed 15 mph    
Max Gust Speed 21 mph    
Visibility 7 miles    
Events Rain    
Averages and records for this station are not official NWS values.
T = Trace of Precipitation, MM = Missing Value Source: NWS Daily Summary

Daily Weather History Graph

Daily Weather History Graph

Search for Another Location

Airport or City:

Trip Planner

Search our weather history database for the weather conditions in past years. The results will help you decide how hot, cold, wet, or windy it might be!

Date:

Astronomy

Jan. 18, 2014 Rise Set
Actual Time 7:10 AM EST 4:47 PM EST
Civil Twilight 6:40 AM EST 5:17 PM EST
Nautical Twilight 6:06 AM EST 5:51 PM EST
Astronomical Twilight 5:33 AM EST 6:24 PM EST
Moon 7:28 PM EST (1/18) 8:06 AM EST (1/18)
Length of Visible Light 10h 37m
Length of Day
9h 36m
Waning Gibbous, 94% of the Moon is Illuminated
Jan 18
Waning Gibbous
Jan 24
Last Quarter
Jan 30
New
Feb 6
First Quarter
Feb 14
Full

Hourly Weather History & Observations

Time (EST) Temp. Windchill Dew Point Humidity Pressure Visibility Wind Dir Wind Speed Gust Speed Precip Events Conditions
12:56 AM 34.0 °F - 32.0 °F 92% 29.90 in 6.0 mi Calm Calm - N/A   Overcast
1:56 AM 34.0 °F - 32.0 °F 92% 29.89 in 5.0 mi Calm Calm - N/A   Overcast
2:56 AM 35.1 °F - 33.1 °F 92% 29.87 in 5.0 mi Calm Calm - N/A   Overcast
3:56 AM 37.0 °F 34.5 °F 35.1 °F 93% 29.84 in 6.0 mi North 3.5 mph - 0.00 in Rain Light Rain
4:56 AM 37.0 °F 32.4 °F 35.1 °F 93% 29.81 in 6.0 mi North 5.8 mph - 0.00 in   Overcast
5:56 AM 37.0 °F 33.3 °F 35.1 °F 93% 29.79 in 7.0 mi NNE 4.6 mph - N/A   Overcast
6:56 AM 37.9 °F 34.4 °F 35.1 °F 89% 29.76 in 8.0 mi North 4.6 mph - N/A   Overcast
7:56 AM 39.9 °F 33.9 °F 33.1 °F 77% 29.75 in 8.0 mi ENE 9.2 mph - N/A   Overcast
8:26 AM 39.2 °F 30.8 °F 33.8 °F 81% 29.75 in 7.0 mi ENE 15.0 mph 20.7 mph 0.00 in Rain Light Rain
8:56 AM 39.0 °F 31.8 °F 34.0 °F 82% 29.75 in 7.0 mi NE 11.5 mph - 0.00 in Rain Light Rain
9:22 AM 39.2 °F 32.0 °F 35.6 °F 87% 29.74 in 6.0 mi ENE 11.5 mph - 0.00 in Rain Light Rain
9:56 AM 39.0 °F 31.0 °F 36.0 °F 89% 29.71 in 5.0 mi ENE 13.8 mph - 0.00 in Rain Light Rain
10:56 AM 41.0 °F 34.7 °F 37.9 °F 89% 29.68 in 7.0 mi NE 10.4 mph - 0.00 in Rain Light Rain
11:29 AM 41.0 °F 34.7 °F 39.2 °F 93% 29.64 in 7.0 mi NE 10.4 mph - 0.00 in   Overcast
11:56 AM 41.0 °F 35.8 °F 37.9 °F 89% 29.63 in 6.0 mi North 8.1 mph - 0.00 in Rain Light Rain
12:15 PM 39.2 °F 34.2 °F 37.4 °F 93% 29.62 in 4.0 mi NW 6.9 mph - 0.00 in Rain Light Rain
12:26 PM 39.2 °F 33.6 °F 37.4 °F 93% 29.62 in 1.8 mi NNW 8.1 mph - 0.01 in Rain Rain
12:51 PM 41.0 °F 35.8 °F 39.2 °F 93% 29.60 in 3.0 mi North 8.1 mph - 0.06 in Rain Light Rain
12:56 PM 42.1 °F 37.1 °F 39.0 °F 89% 29.60 in 5.0 mi NNE 8.1 mph - 0.06 in Rain Light Rain
1:05 PM 41.0 °F 35.2 °F 39.2 °F 93% 29.60 in 7.0 mi NE 9.2 mph - N/A   Overcast
1:56 PM 42.1 °F 39.2 °F 39.0 °F 89% 29.60 in 7.0 mi ENE 4.6 mph - 0.00 in Rain Light Rain
2:56 PM 43.0 °F - 39.0 °F 86% 29.60 in 10.0 mi Calm Calm - 0.00 in   Overcast
3:56 PM 41.0 °F 37.1 °F 37.9 °F 89% 29.61 in 8.0 mi West 5.8 mph - N/A   Overcast
4:03 PM 41.0 °F 35.8 °F 37.4 °F 87% 29.62 in 8.0 mi WNW 8.1 mph - N/A   Overcast
4:56 PM 39.0 °F 32.8 °F 36.0 °F 89% 29.64 in 5.0 mi West 9.2 mph - N/A   Overcast
5:56 PM 37.0 °F 30.4 °F 33.1 °F 86% 29.67 in 8.0 mi WNW 9.2 mph - N/A   Mostly Cloudy
5:58 PM 37.4 °F 30.8 °F 33.8 °F 87% 29.67 in 8.0 mi WNW 9.2 mph - N/A   Mostly Cloudy
6:56 PM 37.0 °F 32.4 °F 34.0 °F 89% 29.68 in 8.0 mi West 5.8 mph - N/A   Overcast
7:56 PM 37.0 °F 28.5 °F 33.1 °F 86% 29.69 in 8.0 mi WNW 13.8 mph 18.4 mph N/A   Overcast
8:56 PM 36.0 °F 28.5 °F 28.9 °F 76% 29.72 in 9.0 mi West 10.4 mph - N/A   Overcast
9:40 PM 35.6 °F 26.2 °F 26.6 °F 70% 29.73 in 10.0 mi WNW 15.0 mph 19.6 mph N/A   Overcast
9:56 PM 35.1 °F 26.4 °F 26.1 °F 70% 29.74 in 10.0 mi WNW 12.7 mph - N/A   Overcast
10:03 PM 35.6 °F 26.6 °F 26.6 °F 70% 29.74 in 10.0 mi WNW 13.8 mph - N/A   Overcast
10:56 PM 34.0 °F 25.0 °F 25.0 °F 70% 29.73 in 10.0 mi WNW 12.7 mph - N/A   Overcast
11:21 PM 33.8 °F 27.0 °F 26.6 °F 75% 29.74 in 10.0 mi WNW 8.1 mph - N/A   Overcast
11:56 PM 33.1 °F 25.5 °F 24.1 °F 70% 29.75 in 10.0 mi WNW 9.2 mph - N/A   Overcast